FW3684 Weather Reports


Display with metric or nautical units.
time (UTC)temp
F
wind
direction
speed
MPH
gust
MPH
rain 1hr
in
rain 24hr
in
rain mn
in
humidity
%
barometer
mb
20260504185051 75 284 1.0 13.0 0.00 0.00 0.00 36 1016.2
20260504184551 74 236 4.0 13.0 0.00 0.00 0.00 38 1016.4
20260504184051 74 274 5.0 11.0 0.00 0.00 0.00 39 1016.3
20260504183550 74 234 1.0 15.0 0.00 0.00 0.00 37 1016.4
20260504183050 75 252 1.0 8.0 0.00 0.00 0.00 39 1016.5
20260504182549 74 70 3.0 10.0 0.00 0.00 0.00 40 1016.5
20260504181549 74 234 5.0 10.0 0.00 0.00 0.00 38 1016.6
20260504181046 74 188 1.0 12.0 0.00 0.00 0.00 42 1016.6
20260504180547 74 252 6.0 12.0 0.00 0.00 0.00 37 1016.8
20260504180049 74 213 1.0 11.0 0.00 0.00 0.00 40 1016.8
20260504175544 73 198 5.0 12.0 0.00 0.00 0.00 39 1016.9
20260504175043 74 278 4.0 12.0 0.00 0.00 0.00 37 1017.0
20260504174545 74 229 1.0 3.0 0.00 0.00 0.00 38 1017.0
20260504174042 73 31 1.0 11.0 0.00 0.00 0.00 36 1017.1
20260504173541 74 231 5.0 11.0 0.00 0.00 0.00 38 1017.1
20260504173042 74 227 2.0 7.0 0.00 0.00 0.00 37 1017.2
20260504172541 75 300 1.0 9.0 0.00 0.00 0.00 36 1017.1
20260504171543 75 227 3.0 9.0 0.00 0.00 0.00 38 1017.2
20260504171041 75 254 4.0 8.0 0.00 0.00 0.00 39 1017.1
20260504170542 75 14 0.0 4.0 0.00 0.00 0.00 40 1017.1
20260504151020 66 100 3.0 12.0 0.00 0.00 0.00 42 1019.7
20260504150521 67 270 5.0 12.0 0.00 0.00 0.00 43 1019.8
20260504141018 66 25 0.0 3.0 0.00 0.00 0.00 48 1019.5
20260504140515 65 150 0.0 6.0 0.00 0.00 0.00 50 1019.4
20260504130504 56 215 3.0 7.0 0.00 0.00 0.00 68 1019.3
20260504110542 40 271 0.0 3.0 0.00 0.00 0.00 90 1019.1
20260504100535 38 70 0.0 4.0 0.00 0.00 0.00 91 1019.6
20260504081530 38 116 0.0 3.0 0.00 0.00 0.00 91 1019.4
20260504081031 38 82 0.0 3.0 0.00 0.00 0.00 90 1019.5
20260504080528 38 83 2.0 3.0 0.00 0.00 0.00 89 1019.3
20260504050513 40 34 1.0 3.0 0.00 0.00 0.00 85 1019.9
20260504050010 41 72 0.0 4.0 0.00 0.00 0.00 84 1020.0
20260504045510 41 68 2.0 4.0 0.00 0.00 0.00 84 1019.9
20260504045011 40 28 1.0 3.0 0.00 0.00 0.00 85 1020.0
20260504044509 40 68 2.0 3.0 0.00 0.00 0.00 85 1019.8
20260504044010 41 79 0.0 3.0 0.00 0.00 0.00 83 1019.9
20260504043506 41 42 1.0 3.0 0.00 0.00 0.00 84 1019.6
20260504043005 41 26 1.0 3.0 0.00 0.00 0.00 84 1019.7
20260504042504 41 84 0.0 2.0 0.00 0.00 0.00 84 1019.7
20260504041505 42 4 0.0 3.0 0.00 0.00 0.00 82 1019.6
20260504041003 42 5 1.0 3.0 0.00 0.00 0.00 81 1019.7
20260504040503 42 55 1.0 3.0 0.00 0.00 0.00 81 1019.9
20260504040008 42 46 1.0 3.0 0.00 0.00 0.00 82 1019.7
20260504035504 42 27 1.0 3.0 0.00 0.00 0.00 81 1019.7
20260504035005 42 34 1.0 3.0 0.00 0.00 0.00 81 1019.5
20260504034501 42 51 0.0 3.0 0.00 0.00 0.00 81 1019.4
20260504034001 43 70 1.0 3.0 0.00 0.00 0.00 80 1019.4
20260504033502 43 69 1.0 4.0 0.00 0.00 0.00 79 1019.4
20260504033002 43 31 3.0 4.0 0.00 0.00 0.00 79 1019.5
20260504032602 43 49 1.0 2.0 0.00 0.00 0.00 78 1019.5
20260504031501 44 93 0.0 3.0 0.00 0.00 0.00 79 1019.5
20260504031100 44 92 1.0 3.0 0.00 0.00 0.00 77 1019.5
20260504030502 44 60 2.0 4.0 0.00 0.00 0.00 77 1019.6
20260504030002 44 21 1.0 4.0 0.00 0.00 0.00 77 1019.8
20260504025600 44 45 2.0 3.0 0.00 0.00 0.00 77 1019.6
20260504025101 44 83 0.0 5.0 0.00 0.00 0.00 77 1019.6
20260504024601 45 103 0.0 5.0 0.00 0.00 0.00 76 1019.6
20260504024200 45 351 0.0 3.0 0.00 0.00 0.00 77 1019.7
20260504023559 45 123 0.0 3.0 0.00 0.00 0.00 75 1019.7
20260504023103 45 34 0.0 3.0 0.00 0.00 0.00 74 1019.8
20260504022600 46 132 0.0 3.0 0.00 0.00 0.00 75 1019.6
20260504021600 46 35 1.0 6.0 0.00 0.00 0.00 72 1019.6
20260504021059 46 80 1.0 2.0 0.00 0.00 0.00 73 1019.5
20260504020602 46 133 0.0 2.0 0.00 0.00 0.00 73 1019.6
20260504015600 47 12 0.0 2.0 0.00 0.00 0.00 71 1019.4
20260504015059 47 12 0.0 2.0 0.00 0.00 0.00 69 1019.2
20260504014607 47 84 0.0 1.0 0.00 0.00 0.00 70 1019.1
20260504014059 48 67 0.0 2.0 0.00 0.00 0.00 69 1019.1
20260504013558 48 84 1.0 2.0 0.00 0.00 0.00 69 1018.9
20260504013108 48 65 0.0 3.0 0.00 0.00 0.00 69 1018.8
20260504012600 49 28 1.0 3.0 0.00 0.00 0.00 68 1018.9
20260504011559 49 77 0.0 2.0 0.00 0.00 0.00 67 1018.7
20260504011058 50 62 0.0 3.0 0.00 0.00 0.00 65 1018.7
20260504010559 50 35 2.0 3.0 0.00 0.00 0.00 64 1018.6
20260504010058 51 89 1.0 2.0 0.00 0.00 0.00 64 1018.5
20260504005559 51 27 0.0 2.0 0.00 0.00 0.00 61 1018.5
20260504005102 52 27 0.0 2.0 0.00 0.00 0.00 60 1018.4
20260504004558 52 70 0.0 2.0 0.00 0.00 0.00 59 1018.3
20260504004056 53 353 0.0 1.0 0.00 0.00 0.00 57 1018.3
20260504003557 54 349 0.0 1.0 0.00 0.00 0.00 55 1018.4
20260504003103 54 346 0.0 1.0 0.00 0.00 0.00 56 1018.2
20260504002557 55 346 0.0 1.0 0.00 0.00 0.00 54 1018.1
20260504001607 56 346 0.0 3.0 0.00 0.00 0.00 53 1017.8
20260504001056 57 91 0.0 2.0 0.00 0.00 0.00 52 1017.7
20260504000556 58 91 0.0 2.0 0.00 0.00 0.00 48 1017.7
20260504000122 59 278 0.0 2.0 0.00 0.00 0.00 40 1017.6
20260503235555 60 200 0.0 2.0 0.00 0.00 0.00 45 1017.6
20260503235055 60 234 0.0 1.0 0.00 0.00 0.00 42 1017.6
20260503234556 61 326 0.0 1.0 0.00 0.00 0.00 44 1017.5
20260503234055 62 333 0.0 1.0 0.00 0.00 0.00 41 1017.6
20260503233557 63 333 0.0 1.0 0.00 0.00 0.00 38 1017.4
20260503233055 64 276 0.0 4.0 0.00 0.00 0.00 33 1017.4
20260503232554 65 335 2.0 5.0 0.00 0.00 0.00 31 1017.4
20260503231555 66 273 1.0 6.0 0.00 0.00 0.00 32 1017.4
20260503231055 67 202 2.0 5.0 0.00 0.00 0.00 29 1017.3
20260503230556 68 229 0.0 3.0 0.00 0.00 0.00 32 1017.4
20260503225555 68 263 2.0 5.0 0.00 0.00 0.00 28 1017.3
20260503225054 68 196 0.0 2.0 0.00 0.00 0.00 31 1017.4
20260503224555 68 309 0.0 6.0 0.00 0.00 0.00 27 1017.4
20260503224054 67 224 2.0 6.0 0.00 0.00 0.00 28 1017.5
20260503223555 67 226 3.0 6.0 0.00 0.00 0.00 27 1017.4
20260503223054 68 297 2.0 6.0 0.00 0.00 0.00 24 1017.4
20260503222555 68 267 2.0 5.0 0.00 0.00 0.00 24 1017.5
20260503221557 68 255 3.0 8.0 0.00 0.00 0.00 24 1017.4
20260503221053 67 341 2.0 13.0 0.00 0.00 0.00 22 1017.5
20260503220553 67 260 4.0 13.0 0.00 0.00 0.00 21 1017.5
20260503220052 67 22 3.0 14.0 0.00 0.00 0.00 21 1017.6
20260503215551 67 255 5.0 14.0 0.00 0.00 0.00 21 1017.6
20260503215050 68 214 5.0 11.0 0.00 0.00 0.00 21 1017.6
20260503214549 68 310 1.0 7.0 0.00 0.00 0.00 27 1017.7
20260503214049 68 266 1.0 9.0 0.00 0.00 0.00 25 1017.7
20260503213548 67 143 3.0 13.0 0.00 0.00 0.00 24 1017.6
20260503213047 67 259 2.0 12.0 0.00 0.00 0.00 25 1017.7
20260503212548 67 273 2.0 7.0 0.00 0.00 0.00 34 1017.8
20260503211546 67 32 3.0 11.0 0.00 0.00 0.00 35 1017.9
20260503211044 66 221 3.0 13.0 0.00 0.00 0.00 36 1018.1
20260503210545 67 278 5.0 13.0 0.00 0.00 0.00 38 1018.1
20260503210044 67 149 2.0 13.0 0.00 0.00 0.00 38 1018.1
20260503205544 67 282 2.0 10.0 0.00 0.00 0.00 37 1018.1
20260503205045 67 258 4.0 14.0 0.00 0.00 0.00 37 1018.2
20260503204544 67 264 5.0 14.0 0.00 0.00 0.00 36 1018.3
20260503204042 67 162 0.0 7.0 0.00 0.00 0.00 35 1018.3
20260503203545 66 252 1.0 15.0 0.00 0.00 0.00 34 1018.3
20260503203043 67 236 5.0 15.0 0.00 0.00 0.00 35 1018.3
20260503202541 67 222 2.0 11.0 0.00 0.00 0.00 33 1018.5
20260503201541 67 321 0.0 9.0 0.00 0.00 0.00 36 1018.6
20260503201044 66 297 2.0 9.0 0.00 0.00 0.00 35 1018.5
20260503200540 66 257 4.0 11.0 0.00 0.00 0.00 36 1018.7
20260503200040 66 263 3.0 11.0 0.00 0.00 0.00 33 1018.8
20260503195540 66 219 4.0 9.0 0.00 0.00 0.00 32 1018.9
20260503195040 67 252 2.0 9.0 0.00 0.00 0.00 33 1019.0
20260503194541 66 270 4.0 9.0 0.00 0.00 0.00 32 1019.0
20260503194040 65 225 1.0 12.0 0.00 0.00 0.00 34 1019.0
20260503193540 65 251 8.0 12.0 0.00 0.00 0.00 32 1019.1
20260503193044 66 280 6.0 12.0 0.00 0.00 0.00 36 1019.1
20260503192540 67 267 2.0 7.0 0.00 0.00 0.00 33 1019.1
20260503191537 66 298 2.0 7.0 0.00 0.00 0.00 33 1019.3
20260503191039 65 266 4.0 7.0 0.00 0.00 0.00 30 1019.4
20260503190536 65 288 2.0 5.0 0.00 0.00 0.00 30 1019.5
20260503190041 66 124 1.0 7.0 0.00 0.00 0.00 31 1019.5
20260503185535 64 139 3.0 7.0 0.00 0.00 0.00 30 1019.6